TimeAKST,TemperatureF,Dew PointF,Humidity,Sea Level PressureIn,VisibilityMPH,Wind Direction,Wind SpeedMPH,Gust SpeedMPH,PrecipitationIn,Events,Conditions,WindDirDegrees,DateUTC
12:53 AM,36.0,35.1,97,29.33,10.0,Calm,Calm,-,N/A,,Mostly Cloudy,0,2012-11-17 09:53:00
1:53 AM,37.9,36.0,93,29.30,10.0,Calm,Calm,-,N/A,,Overcast,0,2012-11-17 10:53:00
3:53 AM,34.0,33.1,96,29.21,10.0,WNW,3.5,-,N/A,,Clear,300,2012-11-17 12:53:00
4:53 AM,36.0,34.0,93,29.17,10.0,NW,6.9,-,N/A,,Clear,320,2012-11-17 13:53:00
5:53 AM,36.0,34.0,93,29.14,10.0,Calm,Calm,-,N/A,,Clear,0,2012-11-17 14:53:00
6:53 AM,37.9,33.1,83,29.08,10.0,NNW,5.8,-,N/A,,Clear,340,2012-11-17 15:53:00
7:53 AM,39.9,32.0,73,29.07,10.0,NW,6.9,-,N/A,,Overcast,310,2012-11-17 16:53:00
8:53 AM,39.0,35.1,86,29.06,10.0,SE,3.5,-,N/A,,Overcast,140,2012-11-17 17:53:00
9:53 AM,39.0,36.0,89,29.06,10.0,SE,4.6,-,0.00,Rain,Light Rain,130,2012-11-17 18:53:00
10:53 AM,39.9,37.0,89,29.05,10.0,Calm,Calm,-,0.07,Rain,Light Rain,0,2012-11-17 19:53:00
11:53 AM,39.9,37.0,89,29.03,10.0,Calm,Calm,-,0.01,,Overcast,0,2012-11-17 20:53:00
12:53 PM,41.0,37.9,89,29.01,10.0,Calm,Calm,-,N/A,,Mostly Cloudy,0,2012-11-17 21:53:00
1:53 PM,39.9,37.9,93,29.00,10.0,SSE,3.5,-,0.03,Rain,Light Rain,150,2012-11-17 22:53:00
2:53 PM,39.0,37.0,93,28.97,10.0,WNW,4.6,-,0.00,,Mostly Cloudy,300,2012-11-17 23:53:00
3:53 PM,39.9,37.0,89,28.94,10.0,NW,3.5,-,N/A,,Mostly Cloudy,320,2012-11-18 00:53:00
4:53 PM,39.9,37.9,93,28.93,8.0,Calm,Calm,-,0.06,Rain,Light Rain,0,2012-11-18 01:53:00
5:53 PM,39.9,37.9,93,28.93,10.0,NW,6.9,-,0.02,Rain,Light Rain,320,2012-11-18 02:53:00
6:53 PM,39.9,39.0,97,28.95,7.0,NW,4.6,-,0.04,Rain,Rain,310,2012-11-18 03:53:00
7:53 PM,39.0,37.9,96,28.99,10.0,Calm,Calm,-,0.08,Rain,Light Rain,0,2012-11-18 04:53:00
8:53 PM,37.9,37.0,97,29.03,10.0,SSE,3.5,-,0.01,Rain,Light Rain,150,2012-11-18 05:53:00
9:51 PM,39.2,37.4,93,29.07,6.0,SSE,5.8,-,0.03,Rain,Light Rain,160,2012-11-18 06:51:00
9:53 PM,39.0,37.9,96,29.08,6.0,SSE,4.6,-,0.03,Rain,Light Rain,150,2012-11-18 06:53:00
10:05 PM,39.2,37.4,93,29.08,7.0,SE,5.8,-,0.01,Rain,Light Rain,140,2012-11-18 07:05:00
10:33 PM,39.2,37.4,93,29.10,7.0,SE,8.1,-,0.01,Rain,Light Rain,140,2012-11-18 07:33:00
10:53 PM,39.0,37.9,96,29.11,10.0,ESE,12.7,-,0.01,,Overcast,120,2012-11-18 07:53:00
11:37 PM,39.2,37.4,93,29.12,10.0,SSE,6.9,-,0.01,Rain,Light Rain,150,2012-11-18 08:37:00
11:53 PM,39.0,37.9,96,29.13,10.0,SSE,6.9,-,0.01,,Overcast,160,2012-11-18 08:53:00